RH
35 39 46 65 64 85 86 76 55 53 46 33 25 35 26 18 28 27 24 36 36 46 51 50 46 42 40 47 52 27 23 51 62 58 47 40 40 32 18 9 7 10 13 26
100 50 57 100 96 97 90 72 56 61 46 30 30 31 26 22 25 30 24 38 35 37 41 47 45 42 41 46 25 36 58 60 60 51 42 41 30 18 10 10 12 19 33 41
98 44 77 95 91 96 92 69 58 70 48 29 32 34 29 24 25 32 23 34 35 39 42 44 43 44 38 12 28 63 64 61 51 44 41 28 16 12 12 18 31 42 49 47
99 93 96 96 92 97 94 71 69 70 52 37 32 30 33 31 26 30 24 36 40 42 46 46 42 21 6 17 30 41 51 52 45 41 30 20 17 18 33 44 51 52 44 34
96 98 98 97 83 97 95 78 80 68 55 41 37 34 33 31 27 30 23 43 47 46 46 47 40 15 15 27 32 36 46 45 44 34 22 20 24 39 49 56 46 36 31 27
100 89 98 90 96 98 93 85 76 64 55 44 36 36 52 40 44 35 20 36 41 42 48 52 36 22 29 32 36 45 47 40 28 23 20 29 49 56 50 38 30 29 29 23
98 98 86 96 98 94 96 88 75 67 56 43 40 35 50 48 48 45 23 9 18 34 42 32 20 24 33 39 44 41 31 24 20 17 33 51 46 40 32 31 32 26 22 21
98 93 86 68 95 86 88 82 71 72 59 44 45 36 40 44 53 47 34 16 8 11 13 13 16 20 29 32 28 25 21 18 20 31 45 38 34 33 32 25 24 22 20 18
98 83 97 79 66 96 88 78 70 72 58 43 47 38 44 41 39 38 35 30 12 9 10 13 14 16 18 19 19 19 17 22 38 46 39 38 33 24 25 25 21 19 20 23
97 99 82 91 91 92 77 82 70 63 58 55 56 46 45 37 32 31 35 36 35 27 15 9 10 15 17 16 15 18 35 49 44 42 36 26 26 27 24 20 21 24 25 26
100 90 72 93 76 82 68 85 76 69 55 46 55 44 37 38 38 36 32 30 28 25 20 11 9 10 13 18 32 53 51 46 40 31 27 27 27 23 23 26 27 29 30 31
98 80 66 55 70 93 98 95 98 77 56 47 48 51 44 39 34 33 27 21 15 10 5 10 19 25 39 56 54 48 45 35 29 26 26 25 24 27 28 30 34 34 34 34
79 84 75 86 85 88 90 81 83 70 55 50 58 46 42 47 48 33 12 3 3 6 16 34 46 58 64 50 48 42 30 26 26 25 25 28 30 32 35 38 38 37 38 41
82 82 82 67 60 65 64 56 72 64 56 54 45 52 56 77 61 24 15 7 23 40 54 61 69 63 50 48 41 29 32 30 26 29 32 35 38 41 42 40 40 42 45 48
92 83 85 75 75 79 76 77 78 65 55 47 74 62 62 54 34 12 2 5 28 55 64 72 62 49 54 57 42 49 29 29 35 39 42 45 46 44 44 44 46 48 53 53
76 78 80 83 72 71 62 65 60 57 56 49 49 49 76 38 16 9 4 23 48 59 65 64 49 52 68 64 47 28 34 42 45 48 48 48 47 48 50 51 53 60 59 51
84 80 87 85 74 67 64 53 56 51 49 51 46 68 55 23 6 6 17 36 39 44 52 51 56 66 64 42 28 37 46 49 50 50 49 50 52 52 56 60 66 64 55 48
97 79 78 78 67 56 53 60 55 55 56 58 67 72 38 8 5 17 28 33 47 55 54 67 74 62 31 29 42 50 50 50 51 50 52 57 57 62 69 73 69 59 52 49
92 86 78 78 95 75 67 66 69 71 84 81 76 69 26 18 26 31 44 61 62 69 73 79 70 38 30 42 49 51 50 51 51 59 61 60 67 75 78 73 61 56 52 42
81 80 97 94 90 81 96 95 87 85 62 44 35 30 34 45 46 66 73 75 74 72 87 83 49 31 44 50 53 51 50 50 61 65 63 69 76 78 72 62 58 51 40 35
76 88 98 95 76 79 97 95 93 83 78 75 76 76 78 84 85 88 82 97 94 84 77 44 34 44 49 52 53 49 48 60 70 72 70 74 76 69 60 55 44 31 22 17
84 77 82 92 94 96 98 90 88 81 79 84 85 78 73 77 90 93 80 65 62 63 33 36 45 48 52 52 51 48 59 70 71 73 77 74 66 58 48 38 25 18 16 18
98 84 96 97 92 98 96 93 97 88 76 74 75 79 74 47 47 48 63 50 34 34 43 46 48 49 51 48 48 58 69 71 74 76 70 60 48 42 39 33 27 21 20 20
96 94 93 98 84 80 87 93 85 70 74 70 52 52 63 70 51 38 31 34 40 45 46 46 48 48 43 52 60 69 69 74 71 59 44 38 40 40 35 26 20 20 22 20
75 86 68 53 53 58 66 80 83 85 89 99 95 80 62 34 34 36 38 45 52 47 48 49 42 45 58 64 66 71 70 56 42 37 38 38 33 26 22 20 21 22 20 18
47 59 68 78 82 89 89 86 89 88 86 80 75 58 42 41 48 61 63 54 52 49 41 41 61 63 65 66 68 55 42 37 38 34 27 24 22 19 18 20 21 19 14 16
Wind_Speed
64 68 71 66 61 58 55 44 41 37 40 40 39 31 31 32 27 24 23 21 27 30 28 27 27 27 28 30 32 31 25 25 26 26 26 29 31 34 37 37 36 35 36 37
57 66 64 59 56 55 52 47 41 41 39 37 38 29 33 34 27 26 26 24 27 28 29 28 27 28 31 32 33 24 22 24 25 26 28 31 33 35 36 35 35 36 38 40
50 63 64 52 56 50 53 46 43 37 35 36 33 28 32 33 29 30 27 27 25 25 25 26 27 29 31 30 25 21 20 25 27 28 30 31 32 32 34 35 37 39 40 40
49 59 60 59 53 48 48 45 43 36 35 36 33 30 30 31 29 30 29 28 26 26 25 25 28 30 28 26 27 27 28 29 29 30 32 33 33 34 35 37 38 39 40 41
47 59 52 52 50 43 45 46 40 36 37 34 30 27 28 33 30 29 29 29 28 27 27 27 28 27 27 27 27 28 29 29 30 31 34 35 34 35 37 37 38 39 39 41
51 53 50 50 42 42 49 45 40 36 35 31 28 27 29 32 30 30 30 30 29 28 30 31 28 28 27 27 27 29 30 30 31 33 34 34 35 36 36 36 38 39 41 44
57 42 53 50 42 44 49 43 37 35 35 27 27 28 25 33 30 30 29 30 30 29 29 31 31 30 27 28 29 29 30 32 33 34 34 35 35 35 36 37 40 42 44 46
50 41 51 59 44 45 48 43 39 35 29 27 28 28 26 28 31 29 27 25 26 28 29 30 29 29 28 29 29 30 32 33 35 34 34 34 34 35 37 39 41 44 48 52
45 54 33 51 51 41 42 42 40 34 28 28 26 27 24 26 27 27 25 24 24 26 29 29 30 29 29 30 30 31 32 34 34 34 33 34 35 36 38 42 46 51 52 55
30 41 46 47 46 41 39 37 38 33 28 26 23 26 25 24 24 25 22 24 24 27 29 31 31 30 30 30 30 30 31 33 32 32 34 35 37 39 44 48 50 54 57 60
37 48 49 40 41 46 45 42 38 32 31 29 22 23 23 22 21 22 24 26 28 30 32 30 29 28 28 28 28 30 30 30 31 33 35 38 41 45 49 51 55 58 61 63
38 36 46 46 41 34 38 40 31 36 33 28 25 23 22 22 21 22 24 25 27 30 29 27 24 25 26 27 29 29 30 31 33 36 38 42 46 49 52 56 59 61 64 67
39 42 42 42 45 46 45 30 28 27 27 30 30 25 22 22 23 22 20 22 26 26 24 23 23 25 28 28 28 30 31 34 36 40 43 46 50 54 57 59 62 64 66 69
40 38 39 38 36 36 29 31 29 29 32 27 26 25 25 25 25 22 24 24 21 22 23 23 25 27 28 28 29 31 34 38 41 44 48 51 55 57 60 62 65 67 69 71
32 34 34 35 35 37 38 37 38 35 32 31 24 26 26 27 24 25 25 24 25 24 25 25 27 29 27 28 32 35 38 41 44 48 52 55 58 60 63 65 67 69 71 74
29 29 30 30 34 37 40 40 39 37 36 31 32 23 25 26 25 27 26 25 25 26 27 28 29 28 30 33 35 38 40 44 48 52 55 59 62 64 65 67 69 71 74 77
25 29 32 33 34 36 37 40 38 37 35 32 31 20 28 27 27 26 25 26 28 30 31 30 29 31 33 36 37 40 44 48 52 56 59 62 65 66 67 68 70 73 76 77
19 23 29 31 36 38 33 34 36 38 36 34 28 23 26 26 26 26 27 29 31 31 30 29 31 33 35 36 39 43 48 52 56 60 63 66 67 67 67 69 73 75 77 80
23 19 18 20 25 27 28 29 30 28 24 26 25 26 27 27 27 28 30 31 30 30 30 31 33 35 36 39 43 47 52 56 60 64 67 68 66 66 68 72 74 76 78 81
25 24 19 26 16 18 19 22 25 26 21 22 23 25 26 27 29 30 32 34 33 31 30 33 35 36 39 43 47 52 56 60 65 67 67 65 65 68 71 73 75 77 81 85
25 32 24 21 20 21 26 23 24 25 20 19 22 25 28 30 32 30 28 30 30 30 34 35 36 39 43 48 52 57 60 64 68 68 66 66 68 70 72 73 75 79 84 89
22 26 24 22 24 23 26 29 26 25 25 26 26 27 28 32 35 32 29 30 32 34 34 36 40 44 48 53 57 60 64 69 68 65 65 68 69 70 71 73 77 82 89 91
28 25 22 23 24 21 17 19 20 26 29 31 33 33 29 29 28 28 29 30 31 33 36 41 45 49 53 57 60 63 68 67 63 63 65 66 68 70 73 77 82 88 92 93
19 19 15 18 16 17 17 17 18 22 24 26 27 27 27 27 27 28 30 32 35 38 42 46 50 54 57 59 63 68 64 60 60 61 63 66 70 74 78 83 88 93 94 92
13 16 16 16 16 18 20 20 20 22 23 25 26 28 29 29 30 32 34 37 41 44 47 50 53 56 59 63 62 57 57 57 58 62 66 71 74 78 83 89 93 93 91 87
17 18 17 15 17 19 19 21 23 25 26 27 28 29 31 33 34 37 39 42 45 47 50 52 55 58 59 54 53 53 54 57 61 66 71 76 80 85 90 92 91 90 85 77
Wind_Direction
211 207 206 207 209 211 214 211 211 217 225 223 227 226 231 236 228 228 228 229 225 225 229 236 241 254 259 265 273 279 275 275 276 278 281 286 292 295 295 297 298 298 298 300
202 203 200 202 209 212 208 207 206 216 223 222 227 224 227 237 230 226 229 229 225 224 230 237 245 254 264 269 275 267 271 275 276 275 280 288 292 295 296 296 296 298 300 302
196 195 198 196 206 208 203 203 209 220 223 224 229 220 226 235 232 227 229 229 223 222 229 240 251 260 266 266 260 265 266 267 273 277 283 287 291 294 295 297 300 302 303 303
188 193 196 199 201 206 201 200 210 218 220 227 225 221 227 233 233 226 230 227 224 229 236 247 258 265 261 260 260 263 268 276 279 286 289 294 300 301 301 300 300 300 301 301
179 191 187 197 200 201 195 200 211 215 222 223 224 225 224 233 231 228 228 230 230 235 242 250 258 262 259 261 265 269 274 280 286 291 294 297 297 296 297 298 298 297 294 292
172 188 183 189 195 195 195 203 210 215 224 224 223 222 209 228 226 227 229 231 237 244 250 256 262 261 259 263 268 274 280 285 287 289 292 295 296 297 296 294 293 292 294 298
168 178 194 189 190 195 194 202 207 215 219 218 217 223 210 222 229 229 234 238 239 244 251 258 261 264 267 271 273 278 280 283 286 290 296 297 296 295 294 295 296 299 301 304
173 170 188 199 195 192 196 202 206 213 212 212 213 222 216 218 224 231 236 243 244 246 249 253 256 259 265 269 272 276 280 284 289 295 297 294 294 294 296 299 300 303 305 307
168 186 172 186 195 196 195 201 206 212 212 215 215 223 220 221 228 234 235 240 246 250 253 257 262 265 268 271 277 281 285 289 293 297 296 295 295 297 299 299 303 305 306 307
155 174 194 195 190 197 201 206 208 210 206 214 209 220 229 227 234 238 240 244 249 255 259 261 264 267 272 277 281 286 289 293 298 298 295 295 298 299 301 304 305 306 307 307
156 179 193 189 198 205 204 208 209 212 213 218 209 221 236 240 238 241 246 249 252 257 261 263 267 271 276 281 286 289 295 297 295 294 295 298 300 303 304 306 308 308 308 308
175 176 195 202 206 208 196 203 208 213 217 222 222 225 235 250 252 247 248 254 258 261 264 267 270 274 281 286 291 296 295 293 295 296 299 302 304 306 309 309 308 308 308 307
189 197 199 205 204 207 219 211 223 220 219 221 231 239 248 245 250 253 254 256 257 259 261 267 274 280 284 289 294 293 293 297 299 301 302 305 308 309 309 309 309 308 308 308
198 200 207 214 218 217 221 221 225 226 223 224 228 243 251 251 248 251 252 255 256 258 264 272 278 281 285 290 290 292 296 299 300 302 305 308 309 309 309 309 309 309 308 308
198 204 211 213 210 211 212 217 222 226 227 229 236 244 251 252 246 245 253 254 254 261 268 273 277 281 284 286 288 293 296 300 303 306 308 309 309 309 308 309 309 308 308 309
209 208 209 211 214 217 219 221 224 225 226 225 234 232 245 249 251 256 255 250 257 264 270 274 277 281 284 288 291 295 300 304 307 308 309 309 309 309 310 309 308 308 308 309
213 206 209 212 212 216 221 220 228 233 234 231 235 234 240 250 253 255 257 258 262 266 269 274 279 282 287 290 294 299 303 306 307 308 309 309 309 309 309 308 308 308 309 312
206 211 212 213 218 220 221 225 229 234 236 232 233 241 248 253 256 258 259 262 264 267 271 275 280 284 287 293 298 302 305 307 308 308 309 309 309 308 308 309 308 310 313 314
194 203 202 213 214 228 226 230 232 232 226 231 237 243 252 258 259 259 260 261 263 267 273 277 284 286 291 296 300 303 306 307 308 309 310 309 309 309 309 309 310 312 314 315
206 201 211 218 226 222 218 217 219 224 228 239 242 246 252 257 260 264 267 267 266 265 271 280 284 288 293 299 301 304 306 307 309 309 308 310 309 309 309 311 312 315 316 316
209 211 211 218 232 221 221 219 223 227 226 239 247 252 256 260 263 267 269 267 268 275 278 280 286 293 297 299 302 303 305 307 308 310 311 310 310 311 312 313 315 318 319 320
219 223 231 228 221 233 225 230 232 229 234 244 252 259 266 268 262 266 262 266 271 275 280 286 291 293 297 299 299 303 305 308 312 312 311 312 312 313 313 315 317 319 319 318
216 222 227 230 238 239 231 232 246 239 243 253 257 260 261 267 267 267 268 270 274 280 285 289 292 295 295 298 301 304 308 312 312 312 313 313 313 313 314 315 316 317 317 316
200 203 230 234 226 232 237 240 248 254 254 258 262 263 264 265 267 269 271 275 279 284 287 290 292 294 298 300 304 308 312 312 314 314 314 313 313 314 315 315 316 317 315 314
208 219 225 234 236 243 247 249 253 255 257 257 257 262 262 264 267 271 276 281 284 286 289 291 293 296 301 306 310 312 313 315 314 314 313 314 315 316 316 317 317 315 315 315
230 237 241 247 252 251 255 260 261 261 262 264 266 268 269 273 279 281 281 282 285 287 291 293 298 303 307 310 312 313 313 313 313 314 317 318 318 319 318 317 315 315 315 316